Theta_e
281 281 281 281 281 281 280 280 280 280 279 279 279 278 278 278 278 278 278 278 278 278 279 278 279 280 280 281 282 282 282 282 281 283 285 286 286 287 289 291 291 290 291
281 281 281 281 280 280 279 279 279 278 278 277 277 276 276 276 276 276 276 277 277 276 277 277 277 278 278 279 280 280 280 281 281 279 282 283 284 285 286 287 288 289 290
280 280 280 280 279 279 279 278 277 276 276 275 275 274 274 274 274 275 275 275 275 275 275 275 276 277 277 278 278 278 279 280 280 280 279 282 283 284 284 285 286 287 288
280 280 280 279 279 278 278 276 275 274 273 273 273 273 272 272 273 274 274 274 274 275 275 275 274 274 275 276 277 278 278 278 279 278 278 278 280 283 284 283 283 285 285
279 279 279 279 278 277 275 274 273 273 272 272 272 271 271 271 272 274 274 274 273 273 273 273 273 273 274 275 275 275 276 277 278 277 277 277 277 279 280 282 282 283 285
278 278 278 277 276 275 273 272 272 271 270 270 270 269 269 270 273 275 275 273 272 271 271 272 272 272 273 274 275 276 276 274 273 274 275 275 276 277 279 279 279 279 278
278 278 276 275 272 272 271 270 269 268 268 268 268 268 267 268 272 274 274 272 272 271 270 270 270 271 271 271 273 274 274 275 276 275 273 274 274 275 275 275 275 276 276
276 273 273 271 270 270 268 268 267 267 266 266 266 266 267 267 271 273 273 272 270 270 270 270 270 270 271 272 272 272 273 273 274 275 275 275 275 276 276 276 276 277 278
274 272 270 269 267 267 265 266 266 265 265 264 266 265 264 264 269 272 272 270 269 269 270 270 270 270 272 274 273 272 273 274 276 277 278 278 279 279 279 277 275 274 272
272 271 269 267 264 263 265 264 264 263 265 265 264 264 263 263 267 270 271 271 269 270 271 271 273 272 275 276 274 273 271 272 273 273 274 275 277 277 278 277 275 272 272
270 268 267 266 263 263 262 263 262 261 263 260 261 262 262 263 264 269 272 272 271 271 271 271 272 275 276 277 277 275 274 275 276 275 275 275 276 275 276 276 276 275 273
267 266 264 262 263 264 258 260 260 259 259 259 259 261 263 264 267 270 272 274 274 272 271 272 272 276 278 278 276 277 278 277 275 274 273 272 273 273 274 275 275 276 276
264 261 260 261 263 262 259 260 260 261 259 259 261 261 262 265 266 270 272 273 274 273 273 274 275 274 274 272 272 274 273 271 271 270 271 272 273 274 275 274 275 275 275
259 260 261 260 261 261 262 262 260 259 259 260 260 260 262 264 267 268 269 271 274 273 272 270 269 268 269 269 267 268 268 268 268 268 269 270 272 272 271 272 271 272 271
259 261 261 260 260 261 261 261 261 261 261 258 259 261 262 265 267 272 273 272 273 272 266 262 261 261 262 263 264 264 265 266 265 266 266 267 268 269 270 271 271 270 269
260 261 261 261 260 260 259 259 264 267 269 270 272 271 270 271 272 273 274 274 273 271 262 258 258 260 260 261 261 261 263 263 264 265 265 265 266 267 268 270 271 270 269
258 260 260 260 259 258 257 257 256 259 264 266 268 269 270 270 271 272 273 272 268 266 257 257 257 258 259 260 261 261 261 263 264 264 265 265 267 267 267 268 269 269 269
254 258 256 257 256 255 255 255 255 254 254 255 260 263 266 268 269 270 270 264 257 258 256 256 257 259 260 260 260 261 261 262 263 264 265 265 266 268 268 268 268 268 269
253 254 253 253 253 253 254 254 253 252 252 252 254 257 259 263 266 266 264 255 253 255 256 257 258 258 259 260 261 261 261 261 262 263 265 265 266 267 268 268 268 268 269
249 253 253 253 253 252 252 252 252 251 251 251 252 253 253 253 255 253 254 252 253 253 255 255 256 257 258 259 260 260 261 261 263 264 265 265 266 267 267 268 270 270 271
250 250 252 251 250 251 250 249 251 250 250 251 252 254 262 261 254 251 251 252 252 253 254 254 255 256 257 258 259 259 260 261 262 264 266 265 265 265 267 268 269 271 273
248 249 249 249 251 251 249 249 249 249 250 251 252 253 261 254 251 250 250 251 252 252 253 253 254 255 256 257 258 258 259 260 262 264 266 264 265 265 267 267 268 269 270
248 248 248 247 248 248 248 248 249 250 251 252 252 253 253 251 250 249 250 251 251 251 253 252 253 253 255 256 257 258 258 260 262 264 265 264 264 265 266 266 267 267 268
250 250 251 250 251 253 252 252 253 253 253 253 253 252 251 250 249 248 249 250 250 251 251 251 252 252 253 254 256 257 258 260 262 266 265 264 263 264 265 265 266 266 267
249 250 251 252 252 254 254 254 254 254 254 254 253 252 249 248 248 248 248 249 249 250 250 251 251 252 252 253 253 254 256 260 265 266 264 263 263 263 263 264 264 265 264
250 251 251 252 253 253 253 253 254 254 253 253 252 249 248 248 248 248 249 248 249 249 249 250 251 250 251 253 254 257 260 265 269 266 263 262 261 262 263 263 263 263 263
Wind_Speed
6 5 7 6 6 6 7 6 6 6 6 7 7 7 7 7 7 7 7 8 9 9 9 10 11 11 9 9 8 8 9 9 12 11 11 9 12 11 9 9 9 11 10
5 5 6 6 6 6 6 5 4 5 5 5 6 6 7 7 8 8 9 9 10 11 11 12 13 9 13 12 9 12 10 11 11 17 13 11 12 11 12 12 10 8 10
6 6 6 5 5 5 5 5 4 4 4 5 5 7 8 9 9 8 8 11 11 12 12 13 14 13 13 11 12 11 10 10 10 11 13 10 12 10 11 11 11 10 10
7 6 5 5 4 4 4 3 3 4 5 5 6 6 7 8 8 9 11 11 12 11 12 13 14 14 15 14 13 13 12 11 11 11 12 13 10 10 10 10 10 9 10
7 6 5 5 5 4 3 3 3 5 5 5 6 6 7 8 7 12 11 12 13 14 14 13 13 14 21 19 12 13 14 12 11 11 12 12 12 9 10 8 11 10 10
7 7 6 6 4 3 3 3 3 4 5 5 6 6 7 6 14 15 14 12 13 14 14 14 14 16 16 22 23 25 21 15 16 13 12 13 14 11 10 10 11 11 14
7 6 6 5 4 3 2 1 3 3 4 4 4 6 7 8 14 17 17 11 12 12 14 14 14 12 15 16 19 23 21 23 24 17 17 15 16 13 13 14 15 15 16
6 6 6 6 4 3 1 1 2 2 3 4 5 5 7 8 16 17 18 12 11 13 13 14 16 16 16 17 16 16 16 15 16 13 15 16 16 14 15 14 16 17 16
7 7 6 5 5 3 2 3 3 2 3 3 5 6 8 9 16 18 16 11 12 13 13 15 16 16 21 26 18 16 15 14 17 27 28 30 29 28 23 12 11 11 13
8 8 7 6 5 4 3 3 2 2 4 4 6 7 9 9 16 17 15 9 10 10 12 13 19 18 26 28 18 15 15 16 15 16 16 19 22 18 25 17 11 12 12
7 7 7 6 5 3 3 2 1 3 4 4 7 7 9 9 11 16 17 10 9 10 10 10 10 24 28 28 29 16 18 20 20 17 14 11 9 10 10 12 13 13 13
8 7 6 5 4 4 4 2 2 2 4 5 5 6 6 8 13 14 18 19 19 11 12 10 13 27 28 28 24 29 30 26 11 11 11 11 11 10 11 11 13 14 14
7 6 5 4 4 3 3 3 2 3 3 4 5 6 7 7 7 16 21 21 20 14 11 19 24 26 28 21 25 25 20 10 10 11 11 12 10 10 13 13 13 15 17
7 6 5 4 4 4 3 3 3 3 3 4 5 6 7 7 6 8 9 9 13 12 14 11 17 18 19 15 12 12 9 8 9 11 11 12 11 11 11 11 11 11 13
5 5 4 4 4 3 4 3 4 5 5 4 6 7 6 6 6 16 15 10 9 11 9 8 8 9 9 9 8 9 9 9 9 9 10 11 11 11 12 10 11 11 13
5 5 4 4 3 3 3 4 9 12 14 15 18 14 4 13 19 19 20 20 19 20 4 5 8 8 9 9 9 10 9 10 9 10 11 11 11 11 12 11 10 11 13
6 5 3 3 3 3 3 4 5 5 11 13 12 14 15 17 17 18 18 18 16 11 2 6 7 8 9 9 9 9 11 10 12 10 10 11 12 12 13 11 10 11 13
5 5 4 4 3 3 3 4 3 4 6 5 6 11 15 14 16 16 15 11 5 5 3 6 7 8 8 9 9 10 10 10 10 11 11 11 11 12 11 11 11 12 12
5 4 4 3 3 4 3 3 3 4 5 5 6 7 8 14 15 11 11 0 3 6 5 6 7 8 8 9 9 10 10 10 12 11 10 11 11 11 11 11 12 16 16
3 4 4 3 3 3 3 3 4 4 5 5 5 6 3 3 2 2 3 3 4 5 6 7 7 7 8 9 9 9 10 11 11 10 10 10 11 10 11 12 11 12 12
3 3 4 3 4 3 4 4 4 4 5 5 7 6 15 6 3 3 5 5 5 6 6 7 7 8 7 8 9 9 10 11 11 12 10 11 10 11 11 11 11 11 12
3 3 3 4 3 4 4 4 4 4 5 6 7 6 14 3 4 5 5 5 5 6 6 7 7 7 7 8 9 10 11 11 11 12 11 10 10 10 10 10 10 9 9
4 3 3 3 3 4 4 4 4 5 6 6 5 5 5 5 5 5 6 5 5 6 6 5 6 8 7 8 8 9 10 11 11 13 11 10 10 9 10 9 9 8 7
4 4 4 4 3 4 5 5 5 7 7 6 5 5 5 5 5 6 6 6 6 6 6 6 6 9 9 9 8 9 9 10 10 10 11 9 9 10 9 8 8 9 7
3 4 4 4 4 5 5 5 6 5 6 5 5 4 4 5 5 6 6 6 6 7 7 7 7 9 10 13 14 14 15 19 16 7 6 8 10 11 8 6 8 7 7
4 4 4 3 4 5 5 6 6 6 5 5 5 4 4 5 6 6 6 6 7 7 8 7 8 11 13 11 13 15 17 18 12 9 7 6 6 7 6 7 9 6 8
Wind_Direction
152 137 128 127 115 101 88 78 66 57 38 33 20 12 6 358 353 341 334 327 325 321 319 314 309 307 303 302 298 292 284 276 272 283 287 295 293 291 286 277 273 282 288
158 152 140 134 127 110 97 91 75 61 45 34 17 4 359 353 347 340 332 329 326 324 321 314 311 309 303 295 291 289 285 285 279 285 287 293 285 288 287 284 281 271 268
170 167 164 154 133 115 105 91 65 50 49 30 18 9 358 350 339 336 335 329 324 320 319 316 313 311 303 299 294 287 283 282 281 281 287 287 289 286 281 277 274 269 264
183 182 172 165 136 122 114 89 64 49 35 21 12 5 354 340 332 339 330 324 319 319 317 315 313 309 307 312 303 295 290 283 279 277 279 284 278 282 279 284 279 273 274
191 189 184 156 138 135 118 64 44 39 26 7 358 355 348 339 338 331 327 321 318 316 314 311 307 307 300 296 294 293 292 290 286 279 278 282 281 280 283 299 290 289 277
196 195 165 158 151 125 71 31 20 12 5 357 351 342 335 326 321 322 322 316 314 310 309 309 307 303 299 301 298 296 292 290 284 284 287 284 289 296 294 294 294 296 292
194 170 157 144 136 114 83 17 352 349 334 334 330 326 319 314 314 320 318 310 307 306 306 306 304 302 300 296 296 295 293 288 282 283 282 282 287 292 297 292 288 283 278
166 161 147 141 139 140 142 275 289 273 311 318 315 312 314 308 316 318 316 314 304 298 300 298 294 291 289 293 288 287 282 278 278 273 271 275 275 275 267 266 268 270 274
178 171 155 146 149 162 200 230 250 266 319 312 311 311 305 302 316 318 317 310 299 294 291 286 280 281 286 292 286 280 280 281 277 277 277 279 279 280 278 277 274 287 285
176 158 148 149 159 182 214 235 223 314 307 313 312 306 296 294 304 311 314 295 290 292 284 280 277 280 288 298 295 288 280 276 272 267 263 266 270 269 271 269 269 265 268
137 137 147 153 166 190 205 226 251 301 307 304 300 291 280 279 283 306 307 302 294 291 293 293 287 289 293 291 287 278 270 271 270 268 268 267 263 260 257 249 249 254 261
139 143 149 161 189 177 184 248 268 279 280 288 287 294 285 282 286 301 304 308 309 307 298 293 286 286 295 311 318 313 309 308 304 292 283 278 274 271 268 264 259 257 256
140 153 167 178 193 185 199 255 279 263 275 296 301 302 297 292 281 288 305 305 309 308 305 307 332 326 317 313 304 310 318 315 304 294 288 284 280 282 279 273 268 267 267
154 170 174 189 201 210 220 229 235 260 269 275 285 282 282 287 286 298 287 284 302 315 329 328 327 327 315 312 313 316 313 309 305 298 294 292 291 286 278 275 275 272 273
162 170 190 194 207 229 236 232 245 237 224 231 240 246 259 287 285 296 314 314 318 335 1 339 330 330 322 320 317 312 312 309 303 299 296 294 291 289 284 272 265 268 268
168 187 198 200 208 229 253 280 278 282 287 286 290 286 271 296 304 306 311 320 341 336 4 324 322 319 319 320 317 315 312 307 304 302 296 289 285 283 284 281 270 266 268
183 176 177 201 211 235 256 264 291 309 309 304 296 293 302 294 304 309 316 328 351 348 315 315 306 308 312 311 308 308 308 307 304 296 295 294 292 289 283 279 276 271 268
175 184 185 194 208 226 236 248 258 286 300 302 298 303 294 304 304 308 327 356 334 333 290 303 303 303 303 304 305 305 304 304 304 301 300 297 293 299 289 279 276 274 272
185 198 195 201 207 217 228 231 241 255 267 267 298 299 290 301 302 321 331 264 294 298 302 301 294 298 301 302 301 300 300 300 301 299 302 302 303 301 297 279 277 276 274
194 217 196 199 223 232 225 231 247 244 258 265 269 267 282 309 283 279 292 289 301 295 300 295 296 295 296 299 303 305 306 307 304 305 306 306 305 303 299 301 294 281 276
189 191 214 213 223 223 224 228 236 241 250 255 261 257 273 271 293 282 290 294 286 284 290 288 294 292 294 300 303 308 306 305 304 307 310 311 307 305 302 300 300 299 301
186 202 188 217 236 239 235 230 234 235 247 254 269 271 292 313 285 279 273 267 272 265 268 277 289 290 294 297 303 305 304 304 308 309 319 312 309 307 308 307 309 311 312
187 199 214 233 230 246 250 237 239 237 247 248 250 269 280 279 275 274 279 282 277 285 282 274 283 291 291 289 290 290 294 298 305 305 317 315 313 313 316 317 322 327 334
194 206 220 227 225 241 242 249 243 241 244 250 247 259 266 269 275 279 280 285 285 283 280 281 277 276 289 292 292 291 287 290 297 303 318 314 315 321 325 330 336 345 349
199 210 216 219 232 247 258 252 251 250 247 250 259 259 262 265 271 270 276 277 282 282 283 282 277 278 282 291 291 289 292 301 306 324 331 322 322 327 334 339 346 348 0
217 213 217 217 238 244 246 253 254 251 250 256 257 251 251 262 264 267 273 271 277 275 280 279 276 278 286 290 289 297 305 309 316 359 343 330 331 340 345 352 358 3 8